User: anonymous   Login
Location: El Álamo
(40.2307°N, 3.9945°W)
Time: 02:33:05
(UTC+00:00)
Language:

ISS - Orbit

View from above orbital plane
View from above orbital plane
View from above satellite
View from above satellite

Ground track
Ground track

The orbit data is extracted from the following two-line orbital elements,

1 25544U 98067A   25191.80191858  .00007787  00000-0  14191-3 0  9996
2 25544  51.6351 190.0161 0002163   2.7467  55.3035 15.50474527518824
Epoch (UTC): 10 July 2025 19:14:45
Eccentricity: 0.0002163
inclination: 51.6351°
perigee height: 414 km
apogee height: 417 km
right ascension of ascending node: 190.0161°
argument of perigee: 2.7467°
revolutions per day: 15.50474527
mean anomaly at epoch: 55.3035°
orbit number at epoch: 51882

The dashed part of the orbit path shows where the satellite is in the earth's shadow,  

DLR